CZ-6A DEB

Satellite information

Favourite Embed

Satellite Type and Status

DEBRISIN ORBIT

Key statistics

Satellite CZ-6A DEB at a glance.

Uptime

907

Days in orbit

Revolutions

≈ 14.4

Per day

Orbit

SSO

Sun Synchronous Orbit

Inclination

98.7

Latest

Satellite identification and parameters

Extended collection of information and parameters for CZ-6A DEB.

Object identification

Identified? True

Debris? True

Object name: CZ-6A DEB

International designator: 2022-151NK

Object number (NORAD): 54609

Object ID (CCSDS): 54609

Country: PEOPLES REPUBLIC OF CHINA (PRC)

Current information (Y/N): Y

RCS size: SMALL

Orbital parameters

Period: 99.932 minutes

Inclination: 98.7404 deg

SMA: 7133.418 km

Apoapsis: 784.316 km

Periapsis: 726.25 km

RAAN: 153.7684 deg

Eccentricy: 0.00407

Argument of periapsis: 66.1779 deg

Mean anomaly: 294.3668 deg

Mean motion: 14.40974214 rev/day

Mean motion (dot): 0.00010553 rev/day2

B* drag term: 0.0032621 1/REarth

Two-line elements (TLE)

Creation date: May 6, 2025, 3:54 a.m.

Reference frame: TEME

Reference center: EARTH

Epoch: May 5, 2025, 2:55 p.m. UTC

TLE line 0: 0 CZ-6A DEB

TLE line 1: 1 54609U 22151NK 25125.62208434 .00010553 00000-0 32621-2 0 9999

TLE line 2: 2 54609 98.7404 153.7684 0040700 66.1779 294.3668 14.40974214128767

Live tracking on map

Real-time ground track for satellite CZ-6A DEB.

In-orbit conjunctions

A list of the most updated potential collisions computed for object CZ-6A DEB.

Target Orbit TCA Probability of collision Miss distance Type
CZ-6A DEB LEO 2025-04-22 18:36:57 0.0001388268 162.0 (m) DEBRIS
COSMOS 1624 LEO 2025-01-01 10:38:48 0.0002375919 349.0 (m) PAYLOAD
CZ-4B R/B SSO 2024-12-22 07:27:30 0.0001147651 937.0 (m) ROCKET BODY

Associated space launch

Chinese satellite reported for atmospheric/ocean/environmental/spatial parameter research purposes, details TBD.

CZ-6A DEB was lifted into orbit during the mission ‘Long March 6A | Yunhai 3’, on board a Long March 6A space rocket.

The launch took place on Nov. 11, 2022, 10:52 p.m. from Launch Complex 9A.

For more information about the launch, click the button.

Launch to space Long March 6A | Yunhai 3
Long March 6A | Yunhai 3

Agency: N/A

Status: Launch Successful

Launch date: Nov. 11, 2022, 10:52 p.m. UTC

Rocket: Long March 6A

Launch pad: Launch Complex 9A

Location: Taiyuan Satellite Launch Center, People's Republic of China

...

Latest news about this satellite

There are no fresh news available about this satellite. Check back as we update our databases every day.


Newsletter sign-up

Weekly statistics, charts and insights to help you stay on top of the space industry.